Regional Weather Roundup
Issued by NWS

Home | Current Version | Previous Version | Graphics & Text | Print | Product List | Glossary On
Versions: 1 2 3 4 5 6 7 8 9 10 11 12 13 14 15 16 17 18 19 20 21 22 23 24 25 26 27 28 29 30 31 32 33 34 35 36 37 38 39 40 41 42 43 44 45 46 47 48 49 50
000
ASUS43 KOAX 070702
RWRNE

WEATHER ROUNDUP FOR NEBRASKA
NATIONAL WEATHER SERVICE OMAHA NE
100 AM CST WED DEC 07 2016

NOTES: SATELLITE DATA IS BEING USED TO AUGMENT CLOUD COVER ABOVE
       12000 FEET.
       "FAIR" INDICATES FEW OR NO CLOUDS BELOW 12,000 FEET WITH NO
       SIGNIFICANT WEATHER AND/OR OBSTRUCTIONS TO VISIBILITY.

  * THESE STATIONS DO NOT REPORT WEATHER SUCH AS RAIN...SNOW OR FOG.

NEZ001>004-019>022-054>056-070800-
NEBRASKA PANHANDLE

CITY           SKY/WX    TMP DP  RH WIND       PRES   REMARKS
SCOTTSBLUFF    CLOUDY    16  -1  47 N9        30.04F WCI   4
ALLIANCE       CLOUDY    10   1  67 N15       30.06R WCI  -7
CHADRON        CLOUDY     9   1  70 W3        30.13R
$$

NEZ057>060-069>072-079>082-070800-
SOUTHWEST NEBRASKA

CITY           SKY/WX    TMP DP  RH WIND       PRES   REMARKS
NORTH PLATTE   CLOUDY    15   2  56 NE5       30.09F WCI   8
IMPERIAL       CLOUDY    20  17  88 NE7       30.02F WCI  11
$$

NEZ005>010-023>029-035>040-094-070800-
NORTH CENTRAL NEBRASKA

CITY           SKY/WX    TMP DP  RH WIND       PRES   REMARKS
VALENTINE      CLOUDY     7  -2  66 NW8       30.14S WCI  -6
BROKEN BOW     CLOUDY    14   3  61 N9        30.12F WCI   2
ORD            CLOUDY    14   2  58 NW15      30.15S WCI  -1
$$

NEZ041-046>049-061>064-073>077-083>087-070800-
SOUTH CENTRAL NEBRASKA

CITY           SKY/WX    TMP DP  RH WIND       PRES   REMARKS
GRAND ISLAND   CLOUDY    20   7  57 N14       30.17R WCI   7
HASTINGS       CLOUDY    22  11  62 N6        30.16S WCI  14
$$

NEZ011>018-030>034-042>045-070800-
NORTHEAST NEBRASKA

CITY           SKY/WX    TMP DP  RH WIND       PRES   REMARKS
$$

NEZ050>053-065>068-078-088>093-070800-
SOUTHEAST NEBRASKA

CITY           SKY/WX    TMP DP  RH WIND       PRES   REMARKS
OMAHA EPPLEY   CLOUDY    22  10  60 NW17      30.18R WCI   8
FALLS CITY     CLOUDY    27  14  58 N8        30.17S WCI  19
$$

NEZ044-045-051>053-067-070800-
OMAHA AREA

CITY           SKY/WX    TMP DP  RH WIND       PRES   REMARKS
OMAHA EPPLEY   CLOUDY    22  10  60 NW17      30.18R WCI   8
OFFUTT AFB     CLOUDY    23  10  56 NW15      30.17R WCI  10
$$




USA.gov is the U.S. government's official web portal to all federal, state and local government web resources and services.